Regional Weather Roundup
Issued by NWS

Home | Current Version | Previous Version | Text Only | Print | Product List | Glossary Off
Versions: 1 2 3 4 5 6 7 8 9 10 11 12 13 14 15 16 17 18 19 20 21 22 23 24 25 26 27 28 29 30 31 32 33 34 35 36 37 38 39 40 41 42 43 44 45 46 47 48 49 50

000
ASUS45 KBOU 241510
RWRCO

WEATHER ROUNDUP FOR COLORADO
NATIONAL WEATHER SERVICE PUEBLO CO
900 AM MDT TUE APR 24 2018

NOTE: "FAIR" INDICATES FEW OR NO CLOUDS BELOW 12000 FEET WITH NO
SIGNIFICANT WEATHER AND/OR OBSTRUCTIONS TO VISIBILITY.

COZ001>005-013-030-031-241600-
...NORTHWEST COLORADO...

CITY           SKY/WX    TMP DP  RH WIND       PRES   REMARKS
CRAIG          CLOUDY    36  28  73 W6        30.35S
HAYDEN         CLOUDY    33  27  78 NW8       30.36R WCI  26
MEEKER         PTSUNNY   38  28  67 NE12      30.34R
RABBIT EARS PA NOT AVBL
STEAMBOAT SPGS CLOUDY    34  29  84 W7        30.33S WCI  27
WALDEN         CLOUDY    32  21  64 NW10      30.36R WCI  24
$$

COZ006>008-011-241600-
...WEST CENTRAL VALLEYS...

CITY           SKY/WX    TMP DP  RH WIND       PRES   REMARKS
GRAND JUNCTION MOSUNNY   59  32  36 E13       30.17S
MONTROSE       SUNNY     54  35  48 W5        30.22S
EAGLE          MOSUNNY   50  34  54 CALM      30.24F
RIFLE          MOSUNNY   48  32  53 NW15      30.25S
DELTA          NOT AVBL
NUCLA          FAIR      55  30  38 N6        30.23R
$$

COZ017>023-064>068-241600-
...SOUTHWEST COLORADO...

CITY           SKY/WX    TMP DP  RH WIND       PRES   REMARKS
DURANGO        SUNNY     53  19  26 CALM      30.19S
CORTEZ         SUNNY     56  26  31 CALM      30.17R
PAGOSA SPRINGS FAIR      51  18  27 CALM      30.24S
TELLURIDE      PTSUNNY   44  29  55 CALM      30.32S
WOLF CREEK PAS MOSUNNY   37  14  38 S9        30.45F
$$

COZ009-010-012-014-032>034-037-058>063-241600-
...CENTRAL COLORADO...

CITY           SKY/WX    TMP DP  RH WIND       PRES   REMARKS
ASPEN          MOSUNNY   45  36  70 VRB3      30.24F
BUENA VISTA    FAIR      47  34  60 SE10      30.28S
COPPER MTN     NOT AVBL
BERTHOUD PASS  FAIR      23  12  63 W12       30.36S WCI  12
COTTONWOOD PAS SUNNY     46  34  61 CALM      30.33S
GUNNISON       MOSUNNY   47  32  56 VRB3      30.28S
KREMMLING      CLOUDY    43  30  61 NW10G18   30.30R
LEADVILLE      CLOUDY    32  31  96 VRB3      30.30F
MONARCH PASS   MOSUNNY   32  25  74 W17G28    30.49S WCI  21
SALIDA         FAIR      47  37  67 SE16G24   30.35S
SUNLIGHT       PTSUNNY   32  27  80 SW6       30.37S WCI  26
WILKERSON PASS CLOUDY   N/A N/A N/A SW5       30.39S
$$

COZ069>075-241600-
...SAN LUIS VALLEY/SANGRE DE CRISTO MOUNTAINS...

CITY           SKY/WX    TMP DP  RH WIND       PRES   REMARKS
ALAMOSA        SUNNY     50  29  44 SE6       30.27S
DEL NORTE      FAIR      48  25  40 W5        30.28S
LA VETA PASS   FOG       30  28  93 N9        30.48S VSB 1/2 WCI  22
SAGUACHE       NOT AVBL
$$

COZ035-036-038>040-241600-
...NORTHERN COLORADO FRONT RANGE...

CITY           SKY/WX    TMP DP  RH WIND       PRES   REMARKS
DENVER INTL AP CLOUDY    33  30  88 N8        30.43R WCI  26
DMNS CITY PARK NOT AVBL
AURORA         NOT AVBL
FRONT RANGE AP CLOUDY    36  32  87 N12       30.42S
ERIE MUNI ARPT CLOUDY    35  33  94 NE5       30.49S WCI  31
BOULDER MUN AP RAIN      34  34 100 SE3       30.43R
CENTENNIAL     CLOUDY    32  29  88 NE6       30.42S WCI  26
BROOMFIELD     LGT SNOW  32  32 100 N5        30.43R WCI  27
LOVELAND       LGT RAIN  37  31  78 NE12      30.44R
LONGMONT       FLURRIES  37  35  93 CALM      30.46R
$$

COZ041-046-047-076>085-087-088-241600-
...PIKES PEAK/PALMER DIVIDE AND SOUTHERN FOOTHILLS...

CITY           SKY/WX    TMP DP  RH WIND       PRES   REMARKS
COLO. SPRINGS  CLOUDY    36  26  67 N28G38    30.35F
A. F. ACADEMY  NOT AVBL
SCHRIEVER AFB  NOT AVBL
CHEYENNE MTN   NOT AVBL
ELLICOTT         N/A    N/A N/A N/A N25G37    30.33S
FALCON         CLOUDY    32  28  84 N21G37    30.36F WCI  19
FORT CARSON    NOT AVBL
LIMON          CLOUDY    32  30  92 N21G32    30.37R WCI  20
MONUMENT HILL  CLOUDY    28  27  93 N13G22    30.41R WCI  18
CANON CITY     CLOUDY    43  37  81 E14       30.32R
WALSENBURG     CLOUDY    39  37  93 E7        30.36S
TRINIDAD       CLOUDY    39  36  89 N12       30.36R
$$

COZ042>045-048>051-090-091-241600-
...NORTHEAST COLORADO...

CITY           SKY/WX    TMP DP  RH WIND       PRES   REMARKS
GREELEY ARPT   CLOUDY    38  30  73 N17       30.45R
AKRON          CLOUDY    34  32  92 N23G31    30.38S WCI  22
BURLINGTON     LGT RAIN  35  34  96 NW15G25   30.36R WCI  25
WRAY           LGT RAIN  37  36  93 N18G28    30.37S
YUMA           NOT AVBL
STERLING       NOT AVBL
HOLYOKE        DRIZZLE   37  36  93 N22G28    30.36S
FORT MORGAN    CLOUDY    37  31  79 N15G21    30.42R
$$

COZ086-089-092>099-241600-
...SOUTHEAST COLORADO...

CITY           SKY/WX    TMP DP  RH WIND       PRES   REMARKS
PUEBLO         LGT RAIN  41  33  73 N21G35    30.35R
LA JUNTA       CLOUDY    43  31  62 N24G37    30.34R
LAMAR          CLOUDY    42  33  70 N29G40    30.30R
SPRINGFIELD      N/A     41  38  89 N22G33    30.28R
$$





USA.gov is the U.S. government's official web portal to all federal, state and local government web resources and services.